sat.trackr.live / text

‹ back to catalog

ONEWEB-0643

NORAD 55807 · 2023-029M

PAYLOAD ACTIVE UNKNOWN

§ Identity

Operator
Country
UK
Launch date
2023-03-09
Launch site
AFETR
Launch vehicle
Mass (kg)
RCS (m²)

Purposes: comms

External: N2YO · Heavens-Above · Gunter

§ Orbital elements

Epoch: 2026-05-25T03:45:24.420960Z

Period
109.55 min
Inclination
87.8931°
Eccentricity
0.0001174
Mean motion
13.14502093 rev/d
Perigee alt
1,204.9 km
Apogee alt
1,206.7 km
Semi-major
7,583.9 km
B*
3.0687e-4
RAAN
294.3250°
Arg perigee
105.7149°
Mean anomaly
254.4111°
Rev number
15,636

§ Raw data

ONEWEB-06431 55807U 23029M   26145.15653265  .00000127  00000+0  30687-3 0  99982 55807  87.8931 294.3250 0001174 105.7149 254.4111 13.14502093156365

JSON: /api/v1/satellites/55807 · /tle

For live sub-satellite position, see the globe view (requires WebGL).

§ Visibility from observer

Set your observer location to see the next 7 days of passes ≥ 10°. The values pass through the URL so the page stays shareable.

No JS? Fill the form by hand. The geolocation button needs JavaScript.